Cloud_Cover
5 14 39 81 100 100 100 100 100 100 100 100 100 59 5 5 5 12 5 5 5 5
88 84 74 100 100 100 100 100 100 100 100 100 100 93 81 34 26 71 23 47 21 87
100 99 100 100 92 100 100 100 100 100 100 100 70 100 77 94 75 55 68 43 19 34
100 98 95 100 100 100 100 100 100 100 100 52 45 94 92 89 56 37 48 55 35 62
64 100 93 96 100 100 100 100 100 92 42 18 89 99 92 90 47 65 66 82 97 100
44 38 100 77 100 100 99 72 76 34 97 82 82 94 86 77 93 100 100 100 100 100
100 100 94 46 100 97 31 71 52 89 80 61 92 100 100 100 100 100 100 100 100 100
93 47 25 96 100 83 94 76 100 82 100 98 98 100 100 100 100 100 100 100 100 100
93 95 98 100 96 100 100 92 100 100 94 83 100 100 100 100 100 100 100 99 26 5
100 92 99 75 100 100 100 98 100 99 100 100 100 100 100 100 100 76 8 5 26 7
93 96 97 100 99 100 99 99 100 96 100 100 100 100 90 45 5 5 5 85 78 74
100 100 100 100 100 100 100 100 93 100 100 87 8 5 5 5 5 5 15 58 100 100
100 100 100 100 100 100 100 97 100 51 0 0 2 5 5 5 5 44 32 14 81 44
100 100 100 100 100 97 100 96 3 0 3 5 5 5 5 5 70 95 49 40 5 20